Time,TemperatureF,DewpointF,PressureIn,WindDirection,WindDirectionDegrees,WindSpeedMPH,WindSpeedGustMPH,Humidity,HourlyPrecipIn,Conditions,Clouds,dailyrainin,SoftwareType,DateUTC
2013-03-02 00:01:00,51.1,19.8,30.30,NE,45,0.0,0.0,29,0.00,,,0.00,WUHU21623XXSP,2013-03-02 08:01:00,
2013-03-02 00:06:00,50.5,20.2,30.30,NE,45,0.0,0.0,30,0.00,,,0.00,WUHU21623XXSP,2013-03-02 08:06:00,
2013-03-02 00:11:00,50.4,20.1,30.30,NE,45,0.0,0.0,30,0.00,,,0.00,WUHU21623XXSP,2013-03-02 08:11:00,
2013-03-02 00:16:00,50.4,20.1,30.30,NE,45,0.0,0.0,30,0.00,,,0.00,WUHU21623XXSP,2013-03-02 08:16:00,
2013-03-02 00:21:00,50.7,20.4,30.31,NE,45,0.0,0.0,30,0.00,,,0.00,WUHU21623XXSP,2013-03-02 08:21:00,
2013-03-02 00:26:00,50.7,20.4,30.31,NE,45,0.0,0.0,30,0.00,,,0.00,WUHU21623XXSP,2013-03-02 08:26:00,
2013-03-02 00:31:00,50.9,20.4,30.31,NE,45,0.0,0.0,30,0.00,,,0.00,WUHU21623XXSP,2013-03-02 08:31:00,
2013-03-02 00:36:00,50.5,20.2,30.31,NE,45,0.0,0.0,30,0.00,,,0.00,WUHU21623XXSP,2013-03-02 08:36:00,
2013-03-02 00:41:00,50.4,20.1,30.31,NE,45,0.0,0.0,30,0.00,,,0.00,WUHU21623XXSP,2013-03-02 08:41:00,
2013-03-02 00:46:00,50.7,20.4,30.31,NE,45,0.0,0.0,30,0.00,,,0.00,WUHU21623XXSP,2013-03-02 08:46:00,
2013-03-02 00:51:00,50.4,20.1,30.31,NE,45,0.0,0.0,30,0.00,,,0.00,WUHU21623XXSP,2013-03-02 08:51:00,
2013-03-02 00:56:00,49.8,19.6,30.31,NE,45,0.0,0.0,30,0.00,,,0.00,WUHU21623XXSP,2013-03-02 08:56:00,
2013-03-02 01:01:00,50.0,19.8,30.31,NE,45,0.0,0.0,30,0.00,,,0.00,WUHU21623XXSP,2013-03-02 09:01:00,
2013-03-02 01:06:00,50.4,20.1,30.31,NE,45,0.0,0.0,30,0.00,,,0.00,WUHU21623XXSP,2013-03-02 09:06:00,
2013-03-02 01:11:00,50.2,19.9,30.31,NE,45,0.0,0.0,30,0.00,,,0.00,WUHU21623XXSP,2013-03-02 09:11:00,
2013-03-02 01:16:00,50.2,19.9,30.31,NE,45,0.0,0.0,30,0.00,,,0.00,WUHU21623XXSP,2013-03-02 09:16:00,
2013-03-02 01:21:00,50.4,20.1,30.31,NE,45,0.0,0.0,30,0.00,,,0.00,WUHU21623XXSP,2013-03-02 09:21:00,
2013-03-02 01:26:00,50.4,20.1,30.31,NE,45,0.0,0.0,30,0.00,,,0.00,WUHU21623XXSP,2013-03-02 09:26:00,
2013-03-02 01:31:00,50.4,20.1,30.31,NE,45,0.0,0.0,30,0.00,,,0.00,WUHU21623XXSP,2013-03-02 09:31:00,
2013-03-02 01:36:00,50.4,20.1,30.30,NE,45,0.0,0.0,30,0.00,,,0.00,WUHU21623XXSP,2013-03-02 09:36:00,
2013-03-02 01:41:00,50.4,20.1,30.29,NE,45,0.0,0.0,30,0.00,,,0.00,WUHU21623XXSP,2013-03-02 09:41:00,
2013-03-02 01:46:00,50.4,20.8,30.30,NE,45,0.0,0.0,30,0.00,,,0.00,WUHU21623XXSP,2013-03-02 09:46:00,
2013-03-02 01:51:00,49.8,20.3,30.30,NE,45,0.0,0.0,31,0.00,,,0.00,WUHU21623XXSP,2013-03-02 09:51:00,
2013-03-02 01:56:00,49.6,20.1,30.29,NE,45,0.0,0.0,31,0.00,,,0.00,WUHU21623XXSP,2013-03-02 09:56:00,
2013-03-02 02:01:00,49.6,20.1,30.29,NE,45,0.0,0.0,31,0.00,,,0.00,WUHU21623XXSP,2013-03-02 10:01:00,
2013-03-02 02:06:00,49.8,20.3,30.30,NE,45,0.0,0.0,31,0.00,,,0.00,WUHU21623XXSP,2013-03-02 10:06:00,
2013-03-02 02:11:00,49.8,20.3,30.30,NE,45,0.0,0.0,31,0.00,,,0.00,WUHU21623XXSP,2013-03-02 10:11:00,
2013-03-02 02:16:00,49.6,20.1,30.29,NE,45,0.0,0.0,31,0.00,,,0.00,WUHU21623XXSP,2013-03-02 10:16:00,
2013-03-02 02:21:00,49.8,20.3,30.29,NE,45,0.0,0.0,31,0.00,,,0.00,WUHU21623XXSP,2013-03-02 10:21:00,
2013-03-02 02:26:00,49.8,20.3,30.29,NE,45,0.0,0.0,31,0.00,,,0.00,WUHU21623XXSP,2013-03-02 10:26:00,
2013-03-02 02:31:00,49.6,20.1,30.29,NE,45,0.0,0.0,31,0.00,,,0.00,WUHU21623XXSP,2013-03-02 10:31:00,
2013-03-02 02:36:00,49.6,20.1,30.29,NE,45,0.0,0.0,31,0.00,,,0.00,WUHU21623XXSP,2013-03-02 10:36:00,
2013-03-02 02:41:00,49.8,20.3,30.28,NE,45,0.0,0.0,31,0.00,,,0.00,WUHU21623XXSP,2013-03-02 10:41:00,
2013-03-02 02:46:00,49.6,20.1,30.28,NE,45,0.0,0.0,31,0.00,,,0.00,WUHU21623XXSP,2013-03-02 10:46:00,
2013-03-02 02:51:00,49.8,20.3,30.28,NE,45,0.0,0.0,31,0.00,,,0.00,WUHU21623XXSP,2013-03-02 10:51:00,
2013-03-02 02:56:00,49.8,20.3,30.28,NE,45,0.0,0.0,31,0.00,,,0.00,WUHU21623XXSP,2013-03-02 10:56:00,
2013-03-02 03:02:00,49.8,20.3,30.28,NE,45,0.0,0.0,31,0.00,,,0.00,WUHU21623XXSP,2013-03-02 11:02:00,
2013-03-02 03:07:00,49.3,19.9,30.28,NE,45,0.0,0.0,31,0.00,,,0.00,WUHU21623XXSP,2013-03-02 11:07:00,
2013-03-02 03:12:00,49.1,20.4,30.28,NE,45,0.0,0.0,32,0.00,,,0.00,WUHU21623XXSP,2013-03-02 11:12:00,
2013-03-02 03:17:00,48.9,20.2,30.28,NE,45,0.0,0.0,32,0.00,,,0.00,WUHU21623XXSP,2013-03-02 11:17:00,
2013-03-02 03:22:00,48.9,20.2,30.28,NE,45,0.0,0.0,32,0.00,,,0.00,WUHU21623XXSP,2013-03-02 11:22:00,
2013-03-02 03:27:00,49.1,20.4,30.28,NE,45,0.0,0.0,32,0.00,,,0.00,WUHU21623XXSP,2013-03-02 11:27:00,
2013-03-02 03:32:00,48.7,20.1,30.28,NE,45,0.0,0.0,32,0.00,,,0.00,WUHU21623XXSP,2013-03-02 11:32:00,
2013-03-02 03:37:00,48.7,20.1,30.27,NE,45,0.0,0.0,32,0.00,,,0.00,WUHU21623XXSP,2013-03-02 11:37:00,
2013-03-02 03:42:00,48.9,20.2,30.28,NE,45,0.0,0.0,32,0.00,,,0.00,WUHU21623XXSP,2013-03-02 11:42:00,
2013-03-02 03:47:00,49.1,20.4,30.27,NE,45,0.0,0.0,32,0.00,,,0.00,WUHU21623XXSP,2013-03-02 11:47:00,
2013-03-02 03:52:00,49.1,20.4,30.27,NE,45,0.0,0.0,32,0.00,,,0.00,WUHU21623XXSP,2013-03-02 11:52:00,
2013-03-02 03:57:00,49.1,20.4,30.27,NE,45,0.0,0.0,32,0.00,,,0.00,WUHU21623XXSP,2013-03-02 11:57:00,
2013-03-02 04:02:00,48.9,20.2,30.27,NE,45,0.0,0.0,32,0.00,,,0.00,WUHU21623XXSP,2013-03-02 12:02:00,
2013-03-02 04:07:00,48.7,20.1,30.27,NE,45,0.0,0.0,32,0.00,,,0.00,WUHU21623XXSP,2013-03-02 12:07:00,
2013-03-02 04:12:00,48.7,20.1,30.27,NE,45,0.0,0.0,32,0.00,,,0.00,WUHU21623XXSP,2013-03-02 12:12:00,
2013-03-02 04:17:00,48.7,20.1,30.27,NE,45,0.0,0.0,32,0.00,,,0.00,WUHU21623XXSP,2013-03-02 12:17:00,
2013-03-02 04:22:00,48.7,20.1,30.27,NE,45,0.0,0.0,32,0.00,,,0.00,WUHU21623XXSP,2013-03-02 12:22:00,
2013-03-02 04:27:00,48.4,19.8,30.28,NE,45,0.0,0.0,32,0.00,,,0.00,WUHU21623XXSP,2013-03-02 12:27:00,
2013-03-02 04:32:00,48.0,20.2,30.28,NE,45,0.0,0.0,33,0.00,,,0.00,WUHU21623XXSP,2013-03-02 12:32:00,
2013-03-02 04:37:00,48.0,20.2,30.28,NE,45,0.0,0.0,33,0.00,,,0.00,WUHU21623XXSP,2013-03-02 12:37:00,
2013-03-02 04:42:00,48.4,20.5,30.28,NE,45,0.0,0.0,33,0.00,,,0.00,WUHU21623XXSP,2013-03-02 12:42:00,
2013-03-02 04:47:00,48.6,20.6,30.28,NE,45,0.0,0.0,33,0.00,,,0.00,WUHU21623XXSP,2013-03-02 12:47:00,
2013-03-02 04:52:00,48.7,20.8,30.28,NE,45,0.0,0.0,33,0.00,,,0.00,WUHU21623XXSP,2013-03-02 12:52:00,
2013-03-02 04:57:00,48.6,20.6,30.28,NE,45,0.0,0.0,33,0.00,,,0.00,WUHU21623XXSP,2013-03-02 12:57:00,
2013-03-02 05:02:00,48.4,20.5,30.28,NE,45,0.0,0.0,33,0.00,,,0.00,WUHU21623XXSP,2013-03-02 13:02:00,
2013-03-02 05:07:00,47.8,20.7,30.28,NE,45,0.0,0.0,34,0.00,,,0.00,WUHU21623XXSP,2013-03-02 13:07:00,
2013-03-02 05:12:00,47.8,20.7,30.28,NE,45,0.0,0.0,34,0.00,,,0.00,WUHU21623XXSP,2013-03-02 13:12:00,
2013-03-02 05:17:00,47.5,20.3,30.28,NE,45,0.0,0.0,34,0.00,,,0.00,WUHU21623XXSP,2013-03-02 13:17:00,
2013-03-02 05:22:00,47.7,20.5,30.28,NE,45,0.0,0.0,34,0.00,,,0.00,WUHU21623XXSP,2013-03-02 13:22:00,
2013-03-02 05:27:00,47.7,20.5,30.28,NE,45,0.0,0.0,34,0.00,,,0.00,WUHU21623XXSP,2013-03-02 13:27:00,
2013-03-02 05:32:00,47.7,20.5,30.28,NE,45,0.0,0.0,34,0.00,,,0.00,WUHU21623XXSP,2013-03-02 13:32:00,
2013-03-02 05:37:00,47.3,20.2,30.28,NE,45,0.0,0.0,34,0.00,,,0.00,WUHU21623XXSP,2013-03-02 13:37:00,
2013-03-02 05:42:00,47.1,20.0,30.28,NE,45,0.0,0.0,34,0.00,,,0.00,WUHU21623XXSP,2013-03-02 13:42:00,
2013-03-02 05:47:00,47.3,20.2,30.28,NE,45,0.0,0.0,34,0.00,,,0.00,WUHU21623XXSP,2013-03-02 13:47:00,
2013-03-02 05:52:00,47.3,20.2,30.28,NE,45,0.0,0.0,34,0.00,,,0.00,WUHU21623XXSP,2013-03-02 13:52:00,
2013-03-02 05:57:00,47.1,20.0,30.28,NE,45,0.0,0.0,34,0.00,,,0.00,WUHU21623XXSP,2013-03-02 13:57:00,
2013-03-02 06:02:00,47.1,20.7,30.28,NE,45,0.0,0.0,35,0.00,,,0.00,WUHU21623XXSP,2013-03-02 14:02:00,
2013-03-02 06:07:00,47.3,20.8,30.28,NE,45,0.0,0.0,35,0.00,,,0.00,WUHU21623XXSP,2013-03-02 14:07:00,
2013-03-02 06:12:00,47.5,21.0,30.28,NE,45,0.0,0.0,35,0.00,,,0.00,WUHU21623XXSP,2013-03-02 14:12:00,
2013-03-02 06:17:00,47.5,21.0,30.28,NE,45,0.0,0.0,35,0.00,,,0.00,WUHU21623XXSP,2013-03-02 14:17:00,
2013-03-02 06:22:00,47.5,21.0,30.28,NE,45,0.0,0.0,35,0.00,,,0.00,WUHU21623XXSP,2013-03-02 14:22:00,
2013-03-02 06:27:00,47.5,21.0,30.28,NE,45,0.0,0.0,35,0.00,,,0.00,WUHU21623XXSP,2013-03-02 14:27:00,
2013-03-02 06:32:00,47.3,20.8,30.28,NE,45,0.0,0.0,35,0.00,,,0.00,WUHU21623XXSP,2013-03-02 14:32:00,
2013-03-02 06:37:00,47.1,20.7,30.28,NE,45,0.0,0.0,35,0.00,,,0.00,WUHU21623XXSP,2013-03-02 14:37:00,
2013-03-02 06:42:00,47.1,20.7,30.29,NE,45,0.0,0.0,35,0.00,,,0.00,WUHU21623XXSP,2013-03-02 14:42:00,
2013-03-02 06:47:00,47.5,21.0,30.29,NE,45,0.0,0.0,35,0.00,,,0.00,WUHU21623XXSP,2013-03-02 14:47:00,
2013-03-02 06:52:00,47.8,21.3,30.29,NE,45,0.0,0.0,35,0.00,,,0.00,WUHU21623XXSP,2013-03-02 14:52:00,
2013-03-02 06:57:00,48.6,22.0,30.29,NE,45,0.0,0.0,35,0.00,,,0.00,WUHU21623XXSP,2013-03-02 14:57:00,
2013-03-02 07:02:00,49.1,22.4,30.29,NE,45,0.0,0.0,35,0.00,,,0.00,WUHU21623XXSP,2013-03-02 15:02:00,
2013-03-02 07:07:00,49.6,22.9,30.29,NE,45,0.0,0.0,35,0.00,,,0.00,WUHU21623XXSP,2013-03-02 15:07:00,
2013-03-02 07:12:00,50.2,23.3,30.29,NE,45,0.0,0.0,35,0.00,,,0.00,WUHU21623XXSP,2013-03-02 15:12:00,
2013-03-02 07:17:00,50.7,23.8,30.29,NE,45,0.0,0.0,35,0.00,,,0.00,WUHU21623XXSP,2013-03-02 15:17:00,
2013-03-02 07:22:00,51.4,24.5,30.29,NE,45,0.0,0.0,35,0.00,,,0.00,WUHU21623XXSP,2013-03-02 15:22:00,
2013-03-02 07:27:00,52.2,24.4,30.29,NE,45,0.0,0.0,34,0.00,,,0.00,WUHU21623XXSP,2013-03-02 15:27:00,
2013-03-02 07:32:00,53.4,24.9,30.29,NE,45,0.0,0.0,33,0.00,,,0.00,WUHU21623XXSP,2013-03-02 15:32:00,
2013-03-02 07:37:00,54.3,25.6,30.29,NE,45,0.0,0.0,33,0.00,,,0.00,WUHU21623XXSP,2013-03-02 15:37:00,
2013-03-02 07:42:00,55.4,25.8,30.29,NE,45,0.0,0.0,32,0.00,,,0.00,WUHU21623XXSP,2013-03-02 15:42:00,
2013-03-02 07:47:00,56.3,26.0,30.29,NE,45,0.0,0.0,31,0.00,,,0.00,WUHU21623XXSP,2013-03-02 15:47:00,
2013-03-02 07:52:00,56.8,26.4,30.29,NE,45,0.0,0.0,31,0.00,,,0.00,WUHU21623XXSP,2013-03-02 15:52:00,
2013-03-02 07:57:00,57.0,25.9,30.29,NE,45,0.0,0.0,30,0.00,,,0.00,WUHU21623XXSP,2013-03-02 15:57:00,
2013-03-02 08:02:00,57.7,26.5,30.29,NE,45,0.0,0.0,30,0.00,,,0.00,WUHU21623XXSP,2013-03-02 16:02:00,
2013-03-02 08:07:00,57.9,25.7,30.29,NE,45,0.0,0.0,29,0.00,,,0.00,WUHU21623XXSP,2013-03-02 16:07:00,
2013-03-02 08:12:00,58.3,26.1,30.29,NE,45,0.0,0.0,29,0.00,,,0.00,WUHU21623XXSP,2013-03-02 16:12:00,
2013-03-02 08:17:00,58.6,26.4,30.29,NE,45,0.0,0.0,29,0.00,,,0.00,WUHU21623XXSP,2013-03-02 16:17:00,
2013-03-02 08:22:00,59.2,26.7,30.29,NE,45,0.0,0.0,29,0.00,,,0.00,WUHU21623XXSP,2013-03-02 16:22:00,
2013-03-02 08:27:00,60.1,27.6,30.29,NE,45,0.0,0.0,29,0.00,,,0.00,WUHU21623XXSP,2013-03-02 16:27:00,
2013-03-02 08:32:00,60.6,27.1,30.29,NE,45,0.0,0.0,28,0.00,,,0.00,WUHU21623XXSP,2013-03-02 16:32:00,
2013-03-02 08:37:00,61.0,27.4,30.29,NE,45,0.0,0.0,28,0.00,,,0.00,WUHU21623XXSP,2013-03-02 16:37:00,
2013-03-02 08:42:00,61.7,28.0,30.29,NE,45,0.0,0.0,28,0.00,,,0.00,WUHU21623XXSP,2013-03-02 16:42:00,
2013-03-02 08:47:00,62.1,27.3,30.29,NE,45,0.0,0.0,27,0.00,,,0.00,WUHU21623XXSP,2013-03-02 16:47:00,
2013-03-02 08:52:00,62.6,27.8,30.28,NE,45,0.0,2.2,27,0.00,,,0.00,WUHU21623XXSP,2013-03-02 16:52:00,
2013-03-02 08:57:00,63.1,28.3,30.29,NE,45,0.0,2.2,27,0.00,,,0.00,WUHU21623XXSP,2013-03-02 16:57:00,
2013-03-02 09:02:00,63.5,28.6,30.28,NE,45,0.0,0.0,27,0.00,,,0.00,WUHU21623XXSP,2013-03-02 17:02:00,
2013-03-02 09:07:00,64.0,28.1,30.28,NE,45,0.0,0.0,26,0.00,,,0.00,WUHU21623XXSP,2013-03-02 17:07:00,
2013-03-02 09:12:00,64.6,28.5,30.29,NE,45,0.0,1.1,26,0.00,,,0.00,WUHU21623XXSP,2013-03-02 17:12:00,
2013-03-02 09:17:00,64.8,28.7,30.28,NE,45,0.0,1.1,26,0.00,,,0.00,WUHU21623XXSP,2013-03-02 17:17:00,
2013-03-02 09:22:00,65.5,29.3,30.28,NE,45,0.0,0.0,26,0.00,,,0.00,WUHU21623XXSP,2013-03-02 17:22:00,
2013-03-02 09:27:00,66.0,28.8,30.28,NE,45,0.0,0.0,25,0.00,,,0.00,WUHU21623XXSP,2013-03-02 17:27:00,
2013-03-02 09:32:00,66.7,29.4,30.28,NE,45,0.0,0.0,25,0.00,,,0.00,WUHU21623XXSP,2013-03-02 17:32:00,
2013-03-02 09:37:00,66.7,29.4,30.28,NE,45,0.0,3.8,25,0.00,,,0.00,WUHU21623XXSP,2013-03-02 17:37:00,
2013-03-02 09:42:00,68.2,29.6,30.28,SSE,157,0.0,3.8,24,0.00,,,0.00,WUHU21623XXSP,2013-03-02 17:42:00,
2013-03-02 09:47:00,69.1,29.4,30.28,SSE,157,0.0,4.7,23,0.00,,,0.00,WUHU21623XXSP,2013-03-02 17:47:00,
2013-03-02 09:52:00,69.6,29.8,30.28,SW,225,7.6,9.8,23,0.00,,,0.00,WUHU21623XXSP,2013-03-02 17:52:00,
2013-03-02 09:57:00,70.3,29.4,30.28,SW,225,4.7,13.4,22,0.00,,,0.00,WUHU21623XXSP,2013-03-02 17:57:00,
2013-03-02 10:02:00,70.7,29.7,30.28,WSW,247,10.1,13.4,22,0.00,,,0.00,WUHU21623XXSP,2013-03-02 18:02:00,
2013-03-02 10:07:00,70.9,29.9,30.27,SW,225,0.0,12.5,22,0.00,,,0.00,WUHU21623XXSP,2013-03-02 18:07:00,
2013-03-02 10:12:00,71.2,30.1,30.28,SSW,202,0.0,11.4,22,0.00,,,0.00,WUHU21623XXSP,2013-03-02 18:12:00,
2013-03-02 10:17:00,71.4,29.3,30.27,South,180,2.5,11.4,21,0.00,,,0.00,WUHU21623XXSP,2013-03-02 18:17:00,
2013-03-02 10:22:00,71.4,29.3,30.27,South,180,0.0,10.1,21,0.00,,,0.00,WUHU21623XXSP,2013-03-02 18:22:00,
2013-03-02 10:27:00,72.0,29.7,30.27,SW,225,0.0,13.6,21,0.00,,,0.00,WUHU21623XXSP,2013-03-02 18:27:00,
2013-03-02 10:32:00,72.3,30.1,30.27,SSW,202,7.8,13.6,21,0.00,,,0.00,WUHU21623XXSP,2013-03-02 18:32:00,
2013-03-02 10:37:00,72.3,30.1,30.27,SSW,202,0.0,13.0,21,0.00,,,0.00,WUHU21623XXSP,2013-03-02 18:37:00,
2013-03-02 10:42:00,72.5,30.2,30.26,SW,225,2.2,12.5,21,0.00,,,0.00,WUHU21623XXSP,2013-03-02 18:42:00,
2013-03-02 10:47:00,73.0,30.7,30.27,SW,225,6.3,12.5,21,0.00,,,0.00,WUHU21623XXSP,2013-03-02 18:47:00,
2013-03-02 10:52:00,72.7,30.4,30.27,South,180,1.8,10.7,21,0.00,,,0.00,WUHU21623XXSP,2013-03-02 18:52:00,
2013-03-02 10:57:00,72.5,30.2,30.26,SW,225,1.3,9.2,21,0.00,,,0.00,WUHU21623XXSP,2013-03-02 18:57:00,
2013-03-02 11:02:00,73.2,30.9,30.26,SW,225,3.8,11.4,21,0.00,,,0.00,WUHU21623XXSP,2013-03-02 19:02:00,
2013-03-02 11:07:00,72.7,30.4,30.26,South,180,6.0,11.4,21,0.00,,,0.00,WUHU21623XXSP,2013-03-02 19:07:00,
2013-03-02 11:12:00,72.0,29.7,30.26,SSE,157,0.0,10.3,21,0.00,,,0.00,WUHU21623XXSP,2013-03-02 19:12:00,
2013-03-02 11:17:00,72.7,30.4,30.26,SSW,202,12.5,15.7,21,0.00,,,0.00,WUHU21623XXSP,2013-03-02 19:17:00,
2013-03-02 11:22:00,72.7,30.4,30.26,SW,225,8.7,17.2,21,0.00,,,0.00,WUHU21623XXSP,2013-03-02 19:22:00,
2013-03-02 11:27:00,72.7,30.4,30.25,WSW,247,1.1,17.2,21,0.00,,,0.00,WUHU21623XXSP,2013-03-02 19:27:00,
2013-03-02 11:32:00,73.0,29.7,30.26,SSW,202,2.7,16.3,20,0.00,,,0.00,WUHU21623XXSP,2013-03-02 19:32:00,
2013-03-02 11:37:00,73.0,30.7,30.25,SW,225,4.9,16.3,21,0.00,,,0.00,WUHU21623XXSP,2013-03-02 19:37:00,
2013-03-02 11:42:00,73.0,29.7,30.25,SSW,202,1.8,19.0,20,0.00,,,0.00,WUHU21623XXSP,2013-03-02 19:42:00,
2013-03-02 11:47:00,73.2,28.2,30.25,SSW,202,13.4,19.0,19,0.00,,,0.00,WUHU21623XXSP,2013-03-02 19:47:00,
2013-03-02 11:52:00,73.0,28.1,30.24,SW,225,7.8,17.0,19,0.00,,,0.00,WUHU21623XXSP,2013-03-02 19:52:00,
2013-03-02 11:58:00,73.4,28.4,30.24,SW,225,0.0,15.0,19,0.00,,,0.00,WUHU21623XXSP,2013-03-02 19:58:00,
2013-03-02 12:02:00,73.8,28.7,30.24,WSW,247,12.1,17.0,19,0.00,,,0.00,WUHU21623XXSP,2013-03-02 20:02:00,
2013-03-02 12:07:00,73.9,28.8,30.24,SW,225,8.1,17.0,19,0.00,,,0.00,WUHU21623XXSP,2013-03-02 20:07:00,
2013-03-02 12:12:00,74.1,28.9,30.23,SSW,202,7.2,13.4,19,0.00,,,0.00,WUHU21623XXSP,2013-03-02 20:12:00,
2013-03-02 12:18:00,74.1,28.9,30.23,SSW,202,8.9,13.4,19,0.00,,,0.00,WUHU21623XXSP,2013-03-02 20:18:00,
2013-03-02 12:23:00,73.9,28.8,30.23,SSW,202,9.8,11.0,19,0.00,,,0.00,WUHU21623XXSP,2013-03-02 20:23:00,
2013-03-02 12:28:00,73.9,27.2,30.23,SSW,202,8.5,18.3,18,0.00,,,0.00,WUHU21623XXSP,2013-03-02 20:28:00,
2013-03-02 12:33:00,73.8,27.0,30.23,SSW,202,2.9,18.3,18,0.00,,,0.00,WUHU21623XXSP,2013-03-02 20:33:00,
2013-03-02 12:38:00,73.9,27.2,30.22,South,180,6.7,14.8,18,0.00,,,0.00,WUHU21623XXSP,2013-03-02 20:38:00,
2013-03-02 12:43:00,73.8,27.0,30.22,SW,225,9.6,13.6,18,0.00,,,0.00,WUHU21623XXSP,2013-03-02 20:43:00,
2013-03-02 12:48:00,73.8,27.0,30.21,WSW,247,4.0,15.2,18,0.00,,,0.00,WUHU21623XXSP,2013-03-02 20:48:00,
2013-03-02 12:53:00,73.6,26.9,30.21,WSW,247,11.6,15.2,18,0.00,,,0.00,WUHU21623XXSP,2013-03-02 20:53:00,
2013-03-02 12:58:00,73.6,26.9,30.21,WSW,247,5.4,15.2,18,0.00,,,0.00,WUHU21623XXSP,2013-03-02 20:58:00,
2013-03-02 13:03:00,73.8,27.0,30.21,WSW,247,4.5,15.7,18,0.00,,,0.00,WUHU21623XXSP,2013-03-02 21:03:00,
2013-03-02 13:08:00,73.8,27.0,30.20,WSW,247,6.3,18.6,18,0.00,,,0.00,WUHU21623XXSP,2013-03-02 21:08:00,
2013-03-02 13:13:00,73.6,26.9,30.20,WSW,247,0.0,18.6,18,0.00,,,0.00,WUHU21623XXSP,2013-03-02 21:13:00,
2013-03-02 13:18:00,73.6,26.9,30.20,WSW,247,7.8,11.4,18,0.00,,,0.00,WUHU21623XXSP,2013-03-02 21:18:00,
2013-03-02 13:23:00,73.6,26.9,30.20,WSW,247,13.9,13.9,18,0.00,,,0.00,WUHU21623XXSP,2013-03-02 21:23:00,
2013-03-02 13:28:00,73.4,26.7,30.19,WSW,247,11.0,13.9,18,0.00,,,0.00,WUHU21623XXSP,2013-03-02 21:28:00,
2013-03-02 13:33:00,73.8,27.0,30.19,WSW,247,5.4,19.0,18,0.00,,,0.00,WUHU21623XXSP,2013-03-02 21:33:00,
2013-03-02 13:38:00,73.8,27.0,30.19,WSW,247,9.6,19.0,18,0.00,,,0.00,WUHU21623XXSP,2013-03-02 21:38:00,
2013-03-02 13:43:00,73.4,26.7,30.19,WSW,247,0.0,17.2,18,0.00,,,0.00,WUHU21623XXSP,2013-03-02 21:43:00,
2013-03-02 13:48:00,73.4,26.7,30.19,WSW,247,5.6,11.4,18,0.00,,,0.00,WUHU21623XXSP,2013-03-02 21:48:00,
2013-03-02 13:53:00,73.2,26.6,30.19,WSW,247,11.6,13.0,18,0.00,,,0.00,WUHU21623XXSP,2013-03-02 21:53:00,
2013-03-02 13:58:00,73.6,26.9,30.18,WSW,247,5.6,13.0,18,0.00,,,0.00,WUHU21623XXSP,2013-03-02 21:58:00,
2013-03-02 14:03:00,73.2,26.6,30.18,WSW,247,5.8,13.6,18,0.00,,,0.00,WUHU21623XXSP,2013-03-02 22:03:00,
2013-03-02 14:08:00,73.8,28.7,30.18,WSW,247,3.8,13.6,19,0.00,,,0.00,WUHU21623XXSP,2013-03-02 22:08:00,
2013-03-02 14:13:00,73.2,28.2,30.18,WSW,247,10.7,14.8,19,0.00,,,0.00,WUHU21623XXSP,2013-03-02 22:13:00,
2013-03-02 14:18:00,72.7,27.7,30.17,WSW,247,0.0,14.8,19,0.00,,,0.00,WUHU21623XXSP,2013-03-02 22:18:00,
2013-03-02 14:23:00,72.7,27.7,30.17,WSW,247,3.4,15.0,19,0.00,,,0.00,WUHU21623XXSP,2013-03-02 22:23:00,
2013-03-02 14:28:00,73.2,28.2,30.17,WSW,247,9.6,15.0,19,0.00,,,0.00,WUHU21623XXSP,2013-03-02 22:28:00,
2013-03-02 14:33:00,73.4,28.4,30.17,WSW,247,1.3,15.0,19,0.00,,,0.00,WUHU21623XXSP,2013-03-02 22:33:00,
2013-03-02 14:38:00,73.6,28.5,30.17,WSW,247,3.6,12.8,19,0.00,,,0.00,WUHU21623XXSP,2013-03-02 22:38:00,
2013-03-02 14:43:00,73.2,28.2,30.17,WSW,247,6.0,16.1,19,0.00,,,0.00,WUHU21623XXSP,2013-03-02 22:43:00,
2013-03-02 14:48:00,73.2,28.2,30.17,WSW,247,0.0,16.1,19,0.00,,,0.00,WUHU21623XXSP,2013-03-02 22:48:00,
2013-03-02 14:54:00,73.2,28.2,30.16,WSW,247,6.9,16.6,19,0.00,,,0.00,WUHU21623XXSP,2013-03-02 22:54:00,
2013-03-02 14:59:00,73.6,28.5,30.16,WSW,247,3.1,16.6,19,0.00,,,0.00,WUHU21623XXSP,2013-03-02 22:59:00,
2013-03-02 15:04:00,73.6,28.5,30.16,WSW,247,8.7,14.5,19,0.00,,,0.00,WUHU21623XXSP,2013-03-02 23:04:00,
2013-03-02 15:09:00,73.6,28.5,30.16,SW,225,2.9,14.5,19,0.00,,,0.00,WUHU21623XXSP,2013-03-02 23:09:00,
2013-03-02 15:14:00,73.2,28.2,30.16,SW,225,3.1,13.0,19,0.00,,,0.00,WUHU21623XXSP,2013-03-02 23:14:00,
2013-03-02 15:19:00,72.7,27.7,30.16,WSW,247,11.0,13.0,19,0.00,,,0.00,WUHU21623XXSP,2013-03-02 23:19:00,
2013-03-02 15:24:00,72.7,30.4,30.16,WSW,247,3.8,15.7,21,0.00,,,0.00,WUHU21623XXSP,2013-03-02 23:24:00,
2013-03-02 15:29:00,72.5,30.2,30.16,WSW,247,11.4,16.1,21,0.00,,,0.00,WUHU21623XXSP,2013-03-02 23:29:00,
2013-03-02 15:34:00,72.3,30.1,30.16,WSW,247,0.0,16.1,21,0.00,,,0.00,WUHU21623XXSP,2013-03-02 23:34:00,
2013-03-02 15:39:00,72.3,30.1,30.16,WSW,247,13.0,17.2,21,0.00,,,0.00,WUHU21623XXSP,2013-03-02 23:39:00,
2013-03-02 15:44:00,72.3,30.1,30.16,WSW,247,6.9,17.2,21,0.00,,,0.00,WUHU21623XXSP,2013-03-02 23:44:00,
2013-03-02 15:49:00,72.0,29.7,30.16,SW,225,0.9,14.1,21,0.00,,,0.00,WUHU21623XXSP,2013-03-02 23:49:00,
2013-03-02 15:54:00,71.8,29.6,30.16,WSW,247,6.9,14.1,21,0.00,,,0.00,WUHU21623XXSP,2013-03-02 23:54:00,
2013-03-02 15:59:00,71.8,29.6,30.16,WSW,247,2.5,13.9,21,0.00,,,0.00,WUHU21623XXSP,2013-03-02 23:59:00,
2013-03-02 16:04:00,71.4,29.3,30.15,WSW,247,2.7,13.9,21,0.00,,,0.00,WUHU21623XXSP,2013-03-03 00:04:00,
2013-03-02 16:09:00,71.2,30.1,30.15,WSW,247,3.4,12.3,22,0.00,,,0.00,WUHU21623XXSP,2013-03-03 00:09:00,
2013-03-02 16:14:00,71.2,30.1,30.15,WSW,247,9.6,12.3,22,0.00,,,0.00,WUHU21623XXSP,2013-03-03 00:14:00,
2013-03-02 16:19:00,71.4,29.3,30.15,WSW,247,9.4,11.4,21,0.00,,,0.00,WUHU21623XXSP,2013-03-03 00:19:00,
2013-03-02 16:24:00,71.2,30.1,30.15,SW,225,2.9,11.6,22,0.00,,,0.00,WUHU21623XXSP,2013-03-03 00:24:00,
2013-03-02 16:29:00,70.5,29.6,30.14,SW,225,3.6,13.0,22,0.00,,,0.00,WUHU21623XXSP,2013-03-03 00:29:00,
2013-03-02 16:34:00,69.6,28.8,30.14,SW,225,4.0,13.0,22,0.00,,,0.00,WUHU21623XXSP,2013-03-03 00:34:00,
2013-03-02 16:39:00,69.4,28.7,30.15,SW,225,7.4,12.1,22,0.00,,,0.00,WUHU21623XXSP,2013-03-03 00:39:00,
2013-03-02 16:44:00,68.7,28.1,30.14,WSW,247,2.5,14.3,22,0.00,,,0.00,WUHU21623XXSP,2013-03-03 00:44:00,
2013-03-02 16:49:00,68.4,27.8,30.14,WSW,247,4.3,15.9,22,0.00,,,0.00,WUHU21623XXSP,2013-03-03 00:49:00,
2013-03-02 16:54:00,67.8,28.3,30.14,SW,225,7.8,15.9,23,0.00,,,0.00,WUHU21623XXSP,2013-03-03 00:54:00,
2013-03-02 16:59:00,67.6,28.2,30.14,WSW,247,3.1,14.8,23,0.00,,,0.00,WUHU21623XXSP,2013-03-03 00:59:00,
2013-03-02 17:04:00,67.3,27.9,30.14,WSW,247,6.3,16.8,23,0.00,,,0.00,WUHU21623XXSP,2013-03-03 01:04:00,
2013-03-02 17:09:00,67.1,27.7,30.13,SW,225,4.3,16.8,23,0.00,,,0.00,WUHU21623XXSP,2013-03-03 01:09:00,
2013-03-02 17:14:00,67.1,27.7,30.13,SW,225,0.0,9.6,23,0.00,,,0.00,WUHU21623XXSP,2013-03-03 01:14:00,
2013-03-02 17:19:00,66.9,27.5,30.14,WSW,247,4.0,9.4,23,0.00,,,0.00,WUHU21623XXSP,2013-03-03 01:19:00,
2013-03-02 17:24:00,66.7,27.4,30.14,WSW,247,9.4,11.6,23,0.00,,,0.00,WUHU21623XXSP,2013-03-03 01:24:00,
2013-03-02 17:29:00,66.4,27.1,30.14,WSW,247,0.0,11.6,23,0.00,,,0.00,WUHU21623XXSP,2013-03-03 01:29:00,
2013-03-02 17:34:00,66.4,27.1,30.14,SW,225,8.3,11.2,23,0.00,,,0.00,WUHU21623XXSP,2013-03-03 01:34:00,
2013-03-02 17:39:00,65.8,26.6,30.14,SW,225,10.3,11.2,23,0.00,,,0.00,WUHU21623XXSP,2013-03-03 01:39:00,
2013-03-02 17:44:00,65.5,27.3,30.15,SW,225,5.1,10.3,24,0.00,,,0.00,WUHU21623XXSP,2013-03-03 01:44:00,
2013-03-02 17:49:00,65.1,27.0,30.14,WSW,247,4.3,11.6,24,0.00,,,0.00,WUHU21623XXSP,2013-03-03 01:49:00,
2013-03-02 17:54:00,64.9,26.9,30.14,SW,225,2.0,11.6,24,0.00,,,0.00,WUHU21623XXSP,2013-03-03 01:54:00,
2013-03-02 17:59:00,64.8,26.7,30.14,SW,225,1.1,10.3,24,0.00,,,0.00,WUHU21623XXSP,2013-03-03 01:59:00,
2013-03-02 18:04:00,64.6,26.6,30.14,SW,225,0.0,10.3,24,0.00,,,0.00,WUHU21623XXSP,2013-03-03 02:04:00,
2013-03-02 18:09:00,64.6,26.6,30.14,SW,225,0.0,6.5,24,0.00,,,0.00,WUHU21623XXSP,2013-03-03 02:09:00,
2013-03-02 18:14:00,64.6,26.6,30.14,SW,225,0.0,6.5,24,0.00,,,0.00,WUHU21623XXSP,2013-03-03 02:14:00,
2013-03-02 18:19:00,64.2,26.3,30.14,SW,225,0.9,10.1,24,0.00,,,0.00,WUHU21623XXSP,2013-03-03 02:19:00,
2013-03-02 18:24:00,63.7,25.8,30.14,SW,225,3.6,10.1,24,0.00,,,0.00,WUHU21623XXSP,2013-03-03 02:24:00,
2013-03-02 18:29:00,63.5,25.7,30.14,SW,225,6.9,11.9,24,0.00,,,0.00,WUHU21623XXSP,2013-03-03 02:29:00,
2013-03-02 18:34:00,63.3,25.5,30.14,SW,225,0.0,11.9,24,0.00,,,0.00,WUHU21623XXSP,2013-03-03 02:34:00,
2013-03-02 18:39:00,63.1,25.4,30.14,SW,225,2.0,8.5,24,0.00,,,0.00,WUHU21623XXSP,2013-03-03 02:39:00,
2013-03-02 18:44:00,63.1,25.4,30.14,SW,225,3.8,9.6,24,0.00,,,0.00,WUHU21623XXSP,2013-03-03 02:44:00,
2013-03-02 18:49:00,63.0,25.2,30.14,SW,225,6.0,9.6,24,0.00,,,0.00,WUHU21623XXSP,2013-03-03 02:49:00,
2013-03-02 18:54:00,62.8,26.0,30.14,SW,225,0.0,11.0,25,0.00,,,0.00,WUHU21623XXSP,2013-03-03 02:54:00,
2013-03-02 18:59:00,62.8,26.0,30.14,SW,225,0.0,11.0,25,0.00,,,0.00,WUHU21623XXSP,2013-03-03 02:59:00,
2013-03-02 19:05:00,62.4,25.7,30.14,SW,225,4.0,6.3,25,0.00,,,0.00,WUHU21623XXSP,2013-03-03 03:05:00,
2013-03-02 19:10:00,62.4,24.7,30.14,SW,225,1.6,7.6,24,0.00,,,0.00,WUHU21623XXSP,2013-03-03 03:10:00,
2013-03-02 19:15:00,62.2,24.6,30.14,SSW,202,11.6,12.3,24,0.00,,,0.00,WUHU21623XXSP,2013-03-03 03:15:00,
2013-03-02 19:20:00,62.2,24.6,30.14,SW,225,0.0,12.3,24,0.00,,,0.00,WUHU21623XXSP,2013-03-03 03:20:00,
2013-03-02 19:25:00,62.2,24.6,30.14,SW,225,0.4,10.1,24,0.00,,,0.00,WUHU21623XXSP,2013-03-03 03:25:00,
2013-03-02 19:30:00,62.2,23.6,30.14,SSW,202,3.4,11.2,23,0.00,,,0.00,WUHU21623XXSP,2013-03-03 03:30:00,
2013-03-02 19:35:00,61.9,24.3,30.14,SSW,202,4.0,11.2,24,0.00,,,0.00,WUHU21623XXSP,2013-03-03 03:35:00,
2013-03-02 19:40:00,61.7,24.2,30.14,SW,225,8.9,8.9,24,0.00,,,0.00,WUHU21623XXSP,2013-03-03 03:40:00,
2013-03-02 19:45:00,61.5,24.0,30.14,SW,225,1.3,8.9,24,0.00,,,0.00,WUHU21623XXSP,2013-03-03 03:45:00,
2013-03-02 19:50:00,61.5,24.0,30.14,SW,225,2.5,8.3,24,0.00,,,0.00,WUHU21623XXSP,2013-03-03 03:50:00,
2013-03-02 19:55:00,61.5,24.0,30.14,SW,225,3.4,8.3,24,0.00,,,0.00,WUHU21623XXSP,2013-03-03 03:55:00,
2013-03-02 20:00:00,61.5,24.0,30.14,SW,225,0.0,6.9,24,0.00,,,0.00,WUHU21623XXSP,2013-03-03 04:00:00,
2013-03-02 20:05:00,61.2,23.7,30.15,SW,225,0.0,6.5,24,0.00,,,0.00,WUHU21623XXSP,2013-03-03 04:05:00,
2013-03-02 20:10:00,61.0,23.5,30.15,SW,225,0.0,5.8,24,0.00,,,0.00,WUHU21623XXSP,2013-03-03 04:10:00,
2013-03-02 20:15:00,61.0,24.5,30.15,SW,225,4.0,6.9,25,0.00,,,0.00,WUHU21623XXSP,2013-03-03 04:15:00,
2013-03-02 20:20:00,60.8,24.4,30.15,SW,225,1.6,6.9,25,0.00,,,0.00,WUHU21623XXSP,2013-03-03 04:20:00,
2013-03-02 20:25:00,60.6,24.2,30.15,SW,225,4.5,6.5,25,0.00,,,0.00,WUHU21623XXSP,2013-03-03 04:25:00,
2013-03-02 20:30:00,60.4,24.0,30.14,SW,225,11.0,11.0,25,0.00,,,0.00,WUHU21623XXSP,2013-03-03 04:30:00,
2013-03-02 20:35:00,60.4,24.0,30.14,SSW,202,4.9,13.4,25,0.00,,,0.00,WUHU21623XXSP,2013-03-03 04:35:00,
2013-03-02 20:40:00,60.4,24.0,30.14,SW,225,7.6,13.4,25,0.00,,,0.00,WUHU21623XXSP,2013-03-03 04:40:00,
2013-03-02 20:45:00,60.6,24.2,30.14,SSW,202,3.1,13.9,25,0.00,,,0.00,WUHU21623XXSP,2013-03-03 04:45:00,
2013-03-02 20:50:00,60.4,24.0,30.14,SW,225,6.3,15.0,25,0.00,,,0.00,WUHU21623XXSP,2013-03-03 04:50:00,
2013-03-02 20:55:00,60.4,24.0,30.14,SW,225,7.8,15.0,25,0.00,,,0.00,WUHU21623XXSP,2013-03-03 04:55:00,
2013-03-02 21:00:00,60.4,24.0,30.14,SW,225,3.8,13.0,25,0.00,,,0.00,WUHU21623XXSP,2013-03-03 05:00:00,
2013-03-02 21:05:00,60.4,24.0,30.14,SW,225,10.1,14.3,25,0.00,,,0.00,WUHU21623XXSP,2013-03-03 05:05:00,
2013-03-02 21:10:00,60.3,23.9,30.14,SSW,202,5.1,13.9,25,0.00,,,0.00,WUHU21623XXSP,2013-03-03 05:10:00,
2013-03-02 21:15:00,60.3,23.9,30.14,SSW,202,11.2,13.9,25,0.00,,,0.00,WUHU21623XXSP,2013-03-03 05:15:00,
2013-03-02 21:20:00,60.4,25.0,30.14,SW,225,9.2,13.2,26,0.00,,,0.00,WUHU21623XXSP,2013-03-03 05:20:00,
2013-03-02 21:25:00,60.1,24.7,30.14,SW,225,4.9,13.2,26,0.00,,,0.00,WUHU21623XXSP,2013-03-03 05:25:00,
2013-03-02 21:30:00,60.1,24.7,30.14,SSW,202,1.6,11.9,26,0.00,,,0.00,WUHU21623XXSP,2013-03-03 05:30:00,
2013-03-02 21:35:00,60.1,24.7,30.14,SSW,202,3.8,14.1,26,0.00,,,0.00,WUHU21623XXSP,2013-03-03 05:35:00,
2013-03-02 21:40:00,60.3,24.8,30.14,SSW,202,8.9,15.0,26,0.00,,,0.00,WUHU21623XXSP,2013-03-03 05:40:00,
2013-03-02 21:45:00,60.4,25.0,30.14,SSW,202,4.0,15.2,26,0.00,,,0.00,WUHU21623XXSP,2013-03-03 05:45:00,
2013-03-02 21:50:00,60.6,24.2,30.14,SSW,202,13.4,15.4,25,0.00,,,0.00,WUHU21623XXSP,2013-03-03 05:50:00,
2013-03-02 21:55:00,60.6,24.2,30.14,SSW,202,3.6,16.6,25,0.00,,,0.00,WUHU21623XXSP,2013-03-03 05:55:00,
2013-03-02 22:00:00,60.6,24.2,30.14,SSW,202,8.5,16.6,25,0.00,,,0.00,WUHU21623XXSP,2013-03-03 06:00:00,
2013-03-02 22:05:00,60.6,24.2,30.13,SSW,202,4.9,11.9,25,0.00,,,0.00,WUHU21623XXSP,2013-03-03 06:05:00,
2013-03-02 22:10:00,60.6,25.1,30.14,SSW,202,4.9,12.5,26,0.00,,,0.00,WUHU21623XXSP,2013-03-03 06:10:00,
2013-03-02 22:15:00,60.6,25.1,30.13,South,180,9.2,18.3,26,0.00,,,0.00,WUHU21623XXSP,2013-03-03 06:15:00,
2013-03-02 22:20:00,60.4,24.0,30.13,SSW,202,11.0,18.3,25,0.00,,,0.00,WUHU21623XXSP,2013-03-03 06:20:00,
2013-03-02 22:26:00,60.4,24.0,30.13,SSW,202,4.5,16.8,25,0.00,,,0.00,WUHU21623XXSP,2013-03-03 06:26:00,
2013-03-02 22:31:00,60.4,24.0,30.13,SW,225,6.5,16.6,25,0.00,,,0.00,WUHU21623XXSP,2013-03-03 06:31:00,
2013-03-02 22:36:00,60.1,23.7,30.13,SSW,202,3.8,16.3,25,0.00,,,0.00,WUHU21623XXSP,2013-03-03 06:36:00,
2013-03-02 22:41:00,60.1,23.7,30.13,SW,225,6.0,14.3,25,0.00,,,0.00,WUHU21623XXSP,2013-03-03 06:41:00,
2013-03-02 22:46:00,60.1,23.7,30.13,SW,225,8.1,12.5,25,0.00,,,0.00,WUHU21623XXSP,2013-03-03 06:46:00,
2013-03-02 22:51:00,60.1,22.8,30.13,SSW,202,10.3,13.4,24,0.00,,,0.00,WUHU21623XXSP,2013-03-03 06:51:00,
2013-03-02 22:56:00,60.3,22.9,30.12,SSW,202,4.7,13.4,24,0.00,,,0.00,WUHU21623XXSP,2013-03-03 06:56:00,
2013-03-02 23:01:00,60.4,23.1,30.12,SSW,202,3.4,15.4,24,0.00,,,0.00,WUHU21623XXSP,2013-03-03 07:01:00,
2013-03-02 23:06:00,60.4,22.1,30.12,SSW,202,5.8,15.4,23,0.00,,,0.00,WUHU21623XXSP,2013-03-03 07:06:00,
2013-03-02 23:11:00,60.4,22.1,30.11,SSW,202,10.5,11.4,23,0.00,,,0.00,WUHU21623XXSP,2013-03-03 07:11:00,
2013-03-02 23:16:00,60.4,22.1,30.11,SSW,202,4.7,13.6,23,0.00,,,0.00,WUHU21623XXSP,2013-03-03 07:16:00,
2013-03-02 23:21:00,60.4,22.1,30.12,SW,225,5.6,18.3,23,0.00,,,0.00,WUHU21623XXSP,2013-03-03 07:21:00,
2013-03-02 23:26:00,60.4,22.1,30.11,SSW,202,14.8,18.3,23,0.00,,,0.00,WUHU21623XXSP,2013-03-03 07:26:00,
2013-03-02 23:31:00,60.4,22.1,30.11,South,180,14.3,18.3,23,0.00,,,0.00,WUHU21623XXSP,2013-03-03 07:31:00,
2013-03-02 23:36:00,60.4,22.1,30.11,SSW,202,10.5,18.3,23,0.00,,,0.00,WUHU21623XXSP,2013-03-03 07:36:00,
2013-03-02 23:41:00,60.4,21.2,30.11,South,180,0.0,15.4,22,0.00,,,0.00,WUHU21623XXSP,2013-03-03 07:41:00,
2013-03-02 23:46:00,60.4,22.1,30.11,SSW,202,3.4,11.9,23,0.00,,,0.00,WUHU21623XXSP,2013-03-03 07:46:00,
2013-03-02 23:51:00,60.4,21.2,30.11,SSW,202,7.2,11.9,22,0.00,,,0.00,WUHU21623XXSP,2013-03-03 07:51:00,
2013-03-02 23:56:00,60.4,20.2,30.11,SSW,202,1.6,15.9,21,0.00,,,0.00,WUHU21623XXSP,2013-03-03 07:56:00,